Kosmos-1791

operational
NORAD ID: 17066 Int'l Des: 1986-086 Owner: VMF Country: SU
LEOCIRCULARPOLAR

Über Kosmos-1791

Beschreibung wird geladen...

Live-Position

3D-Globus wird geladen...

Nächste Überflüge

Höhenverlauf

Altitude vs Time

uPlot chart will show altitude changes over time

Zweizeiliger Elementsatz

1 17066U 86086A 26061.16830672 .00000072 00000-0 57646-4 0 9997
2 17066 82.9519 340.8239 0040773 176.5522 295.9732 13.76044897973470
Epoch: 2. März 2026 • Age: 27 hours

Aktueller Status

Höhe 953.5 km
Geschwindigkeit 7.39 km/s
Subsatellitenpunkt 27.71°N, 48.27°W
Startdatum 13. Nov. 1986
Alter 39.3 years
Typ other

Technische Details

Klassifizierung Payload
Masse 800.00 kg
Trockenmasse 800.00 kg
Gesamtmasse 800.00 kg
Länge 5.00 m
Durchmesser 2.10 m
Spannweite 17.00 m
Form Cyl + Ant
Hersteller OAZ
Bus-Typ KAUR-1 11F643
Phasenstatus In Orbit
Besitzer/Staat VMF/SU

Große Konstellationen

Loading constellations...